Phuket, Thailand

5:11 PM ICT on February 21, 2017 (GMT +0700)
Phuket International

Weather History for VTSP - March, 2013

Change the Weather History Date:

Sunday, March 10, 2013

  Actual Average Record
Temperature  
Mean Temperature 84 °F -  
Max Temperature 91 °F 92 °F 100 °F (2002)
Min Temperature 77 °F 76 °F 71 °F (2005)
Cooling Degree Days 19    
Growing Degree Days 34 (Base 50)    
Moisture  
Dew Point 74 °F    
Average Humidity 75    
Maximum Humidity 94    
Minimum Humidity 46    
Precipitation  
Precipitation 0.00 in 0.12 in - ()
Sea Level Pressure  
Sea Level Pressure 29.86 in    
Wind  
Wind Speed 4 mph ()    
Max Wind Speed 113 mph    
Max Gust Speed -    
Visibility 4.8 miles    
Events      
Averages and records for this station are not official NWS values.
T = Trace of Precipitation, MM = Missing Value Source: Averaged Metar Reports

Daily Weather History Graph

Daily Weather History Graph

Search for Another Location

Airport or City:

Trip Planner

Search our weather history database for the weather conditions in past years. The results will help you decide how hot, cold, wet, or windy it might be!

Date:

Astronomy

Mar. 10, 2013 Rise Set
Actual Time 6:36 AM ICT 6:38 PM ICT
Civil Twilight 6:15 AM ICT 6:58 PM ICT
Nautical Twilight 5:50 AM ICT 7:23 PM ICT
Astronomical Twilight 5:26 AM ICT 7:47 PM ICT
Moon 5:04 AM ICT (3/10) 5:19 PM ICT (3/10)
Length of Visible Light 12h 43m
Length of Day
12h 01m
Waning Crescent, 3% of the Moon is Illuminated
Mar 10
Waning Crescent
Mar 12
New
Mar 20
First Quarter
Mar 27
Full
Apr 3
Last Quarter

Hourly Weather History & Observations

Time (ICT) Temp. Heat Index Dew Point Humidity Pressure Visibility Wind Dir Wind Speed Gust Speed Precip Events Conditions
12:00 AM 78.8 °F - 75.2 °F 89% 29.92 in 4.3 mi Calm Calm - N/A   Mostly Cloudy
12:30 AM 78.8 °F - 75.2 °F 89% 29.89 in 4.3 mi Calm Calm - N/A   Mostly Cloudy
1:00 AM 81 °F - 78 °F 88% 29.86 in 4 mi Calm Calm - -   Mist
1:00 AM 78.8 °F - 75.2 °F 89% 29.89 in 4.3 mi Calm Calm - N/A   Mostly Cloudy
1:30 AM 78.8 °F - 75.2 °F 89% 29.89 in 4.3 mi Calm Calm - N/A   Mostly Cloudy
2:00 AM 77.0 °F - 75.2 °F 94% 29.86 in 4.3 mi Calm Calm - N/A   Mostly Cloudy
2:30 AM 77.0 °F - 75.2 °F 94% 29.86 in 4.3 mi Calm Calm - N/A   Mostly Cloudy
3:00 AM 77.0 °F - 75.2 °F 94% 29.86 in 4.3 mi Calm Calm - N/A   Mostly Cloudy
3:30 AM 77.0 °F - 75.2 °F 94% 29.83 in 4.3 mi Variable 2.3 mph - N/A   Mostly Cloudy
4:00 AM 77.0 °F - 73.4 °F 89% 29.83 in 4.3 mi Calm Calm - N/A   Mostly Cloudy
5:00 AM 77.0 °F - 73.4 °F 89% 29.83 in 4.3 mi Variable 2.3 mph - N/A   Mostly Cloudy
5:30 AM 77.0 °F - 73.4 °F 89% 29.86 in 4.3 mi ESE 2.3 mph - N/A   Mostly Cloudy
6:00 AM 77.0 °F - 73.4 °F 89% 29.86 in 4.3 mi Variable 2.3 mph - N/A   Mostly Cloudy
6:30 AM 77.0 °F - 73.4 °F 89% 29.86 in 4.3 mi Calm Calm - N/A   Mostly Cloudy
7:00 AM 78 °F - 76 °F 93% 29.83 in 4 mi Calm Calm - -   Mist
7:00 AM 77.0 °F - 75.2 °F 94% 29.86 in 4.3 mi East 3.5 mph - N/A   Mostly Cloudy
7:30 AM 78.8 °F - 75.2 °F 89% 29.86 in 4.3 mi Calm Calm - N/A   Mostly Cloudy
8:00 AM 80.6 °F 85.4 °F 73.4 °F 79% 29.86 in 4.3 mi Variable 1.2 mph - N/A   Mostly Cloudy
8:30 AM 84.2 °F 92.3 °F 75.2 °F 74% 29.89 in 4.3 mi East 9.2 mph - N/A   Partly Cloudy
9:00 AM 86.0 °F 95.1 °F 75.2 °F 70% 29.89 in 5.0 mi ESE 13.8 mph - N/A   Scattered Clouds
9:30 AM 86.0 °F 93.4 °F 73.4 °F 66% 29.89 in 5.0 mi East 11.5 mph - N/A   Scattered Clouds
10:00 AM 87.8 °F 95.6 °F 73.4 °F 62% 29.92 in 5.0 mi East 9.2 mph - N/A   Scattered Clouds
10:30 AM 87.8 °F 95.6 °F 73.4 °F 62% 29.92 in 5.0 mi East 11.5 mph - N/A   Scattered Clouds
11:00 AM 89.6 °F 98.2 °F 73.4 °F 59% 29.92 in 5.0 mi ENE 9.2 mph - N/A   Scattered Clouds
11:30 AM 89.6 °F 96.2 °F 71.6 °F 55% 29.89 in 5.0 mi East 9.2 mph - N/A   Scattered Clouds
12:00 PM 91.4 °F 98.4 °F 71.6 °F 52% 29.89 in 5.0 mi ENE 9.2 mph - N/A   Scattered Clouds
12:30 PM 91.4 °F 96.8 °F 69.8 °F 49% 29.86 in 5.0 mi North 112.8 mph - N/A   Scattered Clouds
1:00 PM 91 °F - 73 °F 46% 29.86 in 6 mi East 3.5 mph - -   Scattered Clouds
1:00 PM 91.4 °F 100.1 °F 73.4 °F 55% 29.86 in 5.6 mi Variable 5.8 mph - N/A   Scattered Clouds
1:30 PM 89.6 °F 98.2 °F 73.4 °F 59% 29.86 in 5.6 mi SW 6.9 mph - N/A   Scattered Clouds
2:00 PM 91.4 °F 102.5 °F 75.2 °F 59% 29.83 in 5.6 mi Variable 8.1 mph - N/A   Scattered Clouds
2:30 PM 91.4 °F 102.5 °F 75.2 °F 59% 29.83 in 5.6 mi WSW 10.4 mph - N/A   Mostly Cloudy
3:00 PM 89.6 °F 98.2 °F 73.4 °F 59% 29.80 in 5.0 mi WSW 11.5 mph - N/A   Mostly Cloudy
3:30 PM 89.6 °F 99.8 °F 75.2 °F 62% 29.80 in 5.0 mi WSW 11.5 mph - N/A   Mostly Cloudy
4:00 PM 89.6 °F 99.8 °F 75.2 °F 62% 29.77 in 5.0 mi WSW 9.2 mph - N/A   Mostly Cloudy
4:30 PM 89.6 °F 99.8 °F 75.2 °F 62% 29.77 in 5.0 mi WSW 9.2 mph - N/A   Mostly Cloudy
5:00 PM 87.8 °F 97.6 °F 75.2 °F 66% 29.80 in 5.0 mi WSW 8.1 mph - N/A   Mostly Cloudy
5:30 PM 87.8 °F 95.6 °F 73.4 °F 62% 29.80 in 5.0 mi West 9.2 mph - N/A   Scattered Clouds
6:00 PM 86.0 °F 93.4 °F 73.4 °F 66% 29.80 in 5.0 mi WSW 6.9 mph - N/A   Scattered Clouds
6:30 PM 84.2 °F 90.9 °F 73.4 °F 70% 29.83 in 5.0 mi SW 5.8 mph - N/A   Scattered Clouds
7:00 PM 88 °F - 74 °F 56% 29.79 in 5 mi Calm Calm - -   Haze
7:00 PM 84.2 °F 90.9 °F 73.4 °F 70% 29.83 in 5.0 mi WSW 3.5 mph - N/A   Scattered Clouds
7:30 PM 80.6 °F 85.4 °F 73.4 °F 79% 29.83 in 5.0 mi Calm Calm - N/A   Scattered Clouds
8:00 PM 80.6 °F 85.4 °F 73.4 °F 79% 29.86 in 5.0 mi Calm Calm - N/A   Scattered Clouds
8:30 PM 78.8 °F - 73.4 °F 83% 29.86 in 5.0 mi Calm Calm - N/A   Scattered Clouds
9:00 PM 78.8 °F - 73.4 °F 83% 29.86 in 5.0 mi Calm Calm - N/A   Scattered Clouds
9:30 PM 78.8 °F - 73.4 °F 83% 29.89 in 5.0 mi Calm Calm - N/A   Scattered Clouds
10:00 PM 78.8 °F - 73.4 °F 83% 29.89 in 5.0 mi Calm Calm - N/A   Scattered Clouds
10:30 PM 78.8 °F - 75.2 °F 89% 29.89 in 5.0 mi Variable 1.2 mph - N/A   Scattered Clouds
11:00 PM 78.8 °F - 75.2 °F 89% 29.89 in 5.0 mi Variable 1.2 mph - N/A   Scattered Clouds
11:30 PM 82.4 °F 89.5 °F 75.2 °F 79% 29.89 in 5.0 mi Variable 1.2 mph - N/A   Scattered Clouds